Elkins, WV

3:45 AM EST on November 14, 2019 (GMT -0500)
Elkins-Randolph County

Weather History for KEKN - September, 2019

Change the Weather History Date:

Tuesday, September 3, 2019

  Actual Average Record
Temperature  
Mean Temperature 72 °F 66 °F  
Max Temperature 86 °F 78 °F 97 °F (1953)
Min Temperature 57 °F 55 °F 39 °F (1934)
Degree Days  
Heating Degree Days 0 2  
Month to date heating degree days 0 4  
Since 1 July heating degree days 7 34  
Cooling Degree Days 6 3  
Month to date cooling degree days 21 9  
Year to date cooling degree days 692 435  
Growing Degree Days 22 (Base 50)    
Moisture  
Dew Point 58 °F    
Average Humidity 82    
Maximum Humidity 97    
Minimum Humidity 39    
Precipitation  
Precipitation 0.00 in 0.13 in 1.76 in (1943)
Month to date precipitation T 0.38  
Year to date precipitation 37.71 33.19  
Snow  
Snow 0.00 in 0.00 in 0.00 in (2017)
Month to date snowfall 0.0 0.0  
Since 1 September snowfall 0.0 0.0  
Snow Depth 0.00 in    
Sea Level Pressure  
Sea Level Pressure 30.11 in    
Wind  
Wind Speed 1 mph ()    
Max Wind Speed 8 mph    
Max Gust Speed 11 mph    
Visibility 4.6 miles    
Events Fog    
T = Trace of Precipitation, MM = Missing Value Source: Averaged Metar Reports

Daily Weather History Graph

Daily Weather History Graph

Search for Another Location

Airport or City:

Astronomy

Sep. 03, 2019 Rise Set
Actual Time 6:49 AM EDT 7:47 PM EDT
Civil Twilight 6:22 AM EDT 8:14 PM EDT
Nautical Twilight 5:50 AM EDT 8:46 PM EDT
Astronomical Twilight 5:16 AM EDT 9:19 PM EDT
Moon 11:38 AM EDT (9/3) 10:45 PM EDT (9/3)
Length of Visible Light 13h 51m
Length of Day
12h 57m
Waxing Crescent, 24% of the Moon is Illuminated
Sep 3
Waxing Crescent
Sep 5
First Quarter
Sep 14
Full
Sep 21
Last Quarter
Sep 28
New

Hourly Weather History & Observations

Time (EDT) Temp. Heat Index Dew Point Humidity Pressure Visibility Wind Dir Wind Speed Gust Speed Precip Events Conditions
12:28 AM 61.0 °F - 57.9 °F 90% 30.15 in 2.5 mi Calm Calm - N/A   Partly Cloudy
12:36 AM 60.8 °F - 57.2 °F 88% 30.15 in 1.5 mi Calm Calm - N/A   Scattered Clouds
12:39 AM 61.0 °F - 57.9 °F 90% 30.15 in 3.0 mi Calm Calm - N/A   Partly Cloudy
12:45 AM 60.8 °F - 57.2 °F 88% 30.15 in 1.8 mi Calm Calm - N/A   Partly Cloudy
12:49 AM 60.8 °F - 57.2 °F 88% 30.15 in 0.8 mi Calm Calm - N/A   Mist
12:51 AM 60.1 °F - 57.0 °F 90% 30.12 in 0.8 mi Calm Calm - N/A   Mist
12:57 AM 59.0 °F - 57.0 °F 93% 30.15 in 1.2 mi Calm Calm - N/A   Partly Cloudy
1:00 AM 59.0 °F - 55.9 °F 90% 30.15 in 3.0 mi Calm Calm - N/A   Clear
1:18 AM 59.0 °F - 55.9 °F 90% 30.15 in 6.0 mi Calm Calm - N/A   Partly Cloudy
1:46 AM 59.0 °F - 55.4 °F 88% 30.14 in 1.8 mi Calm Calm - N/A   Clear
1:51 AM 59.0 °F - 57.0 °F 93% 30.12 in 0.5 mi Calm Calm - N/A Fog Fog
2:00 AM 59.0 °F - 55.9 °F 90% 30.14 in 1.0 mi Calm Calm - N/A   Mist
2:17 AM 57.9 °F - 55.9 °F 93% 30.13 in 0.5 mi Calm Calm - N/A Fog Fog
2:29 AM 59.0 °F - 55.9 °F 90% 30.13 in 1.2 mi Calm Calm - N/A   Overcast
2:48 AM 60.8 °F - 57.2 °F 88% 30.13 in 0.8 mi Calm Calm - N/A   Overcast
2:51 AM 60.1 °F - 57.9 °F 93% 30.10 in 0.8 mi Calm Calm - N/A   Overcast
3:02 AM 61.0 °F - 57.9 °F 90% 30.12 in 1.5 mi Calm Calm - N/A   Overcast
3:06 AM 61.0 °F - 57.9 °F 90% 30.12 in 3.0 mi Calm Calm - N/A   Overcast
3:16 AM 61.0 °F - 57.9 °F 90% 30.12 in 2.5 mi Calm Calm - N/A   Overcast
3:22 AM 61.0 °F - 57.9 °F 90% 30.12 in 0.8 mi Calm Calm - N/A   Overcast
3:33 AM 61.0 °F - 59.0 °F 93% 30.12 in 0.2 mi Calm Calm - N/A Fog Fog
3:51 AM 61.0 °F - 59.0 °F 93% 30.09 in 0.2 mi Calm Calm - N/A Fog Fog
4:06 AM 61.0 °F - 59.0 °F 93% 30.12 in 0.5 mi SW 3.5 mph - N/A Fog Fog
4:16 AM 61.0 °F - 59.0 °F 93% 30.12 in 0.2 mi SW 3.5 mph - N/A Fog Fog
4:51 AM 61.0 °F - 59.0 °F 93% 30.09 in 0.2 mi Calm Calm - N/A Fog Fog
5:51 AM 61.0 °F - 59.0 °F 93% 30.11 in 0.2 mi Calm Calm - N/A Fog Fog
6:37 AM 61.0 °F - 57.9 °F 90% 30.14 in 1.0 mi ESE 3.5 mph - N/A   Mist
6:44 AM 61.0 °F - 57.9 °F 90% 30.14 in 3.0 mi SE 3.5 mph - N/A   Overcast
6:51 AM 61.0 °F - 57.9 °F 90% 30.13 in 1.8 mi Calm Calm - N/A   Overcast
7:07 AM 62.1 °F - 59.0 °F 90% 30.15 in 0.5 mi Calm Calm - N/A Fog Fog
7:51 AM 62.1 °F - 59.0 °F 90% 30.14 in 1.5 mi SE 3.5 mph - N/A   Overcast
7:59 AM 62.1 °F - 59.0 °F 90% 30.16 in 3.0 mi Calm Calm - N/A   Overcast
8:41 AM 62.6 °F - 59.0 °F 88% 30.16 in 9.0 mi SSE 3.5 mph - N/A   Overcast
8:51 AM 63.0 °F - 59.0 °F 87% 30.14 in 9.0 mi SSE 3.5 mph - N/A   Overcast
9:02 AM 63.0 °F - 59.0 °F 87% 30.16 in 9.0 mi Calm Calm - N/A   Overcast
9:51 AM 66.0 °F - 60.1 °F 81% 30.14 in 10.0 mi SSW 3.5 mph - N/A   Overcast
10:13 AM 68.0 °F - 60.8 °F 78% 30.15 in 10.0 mi SW 3.5 mph - N/A   Scattered Clouds
10:51 AM 71.1 °F - 61.0 °F 70% 30.12 in 10.0 mi West 3.5 mph - N/A   Clear
11:51 AM 75.9 °F - 59.0 °F 56% 30.11 in 10.0 mi Variable 3.5 mph - N/A   Clear
12:51 PM 80.1 °F 80.6 °F 57.9 °F 47% 30.09 in 10.0 mi WNW 4.6 mph - N/A   Clear
1:51 PM 82.0 °F 82.0 °F 57.9 °F 44% 30.08 in 10.0 mi Variable 3.5 mph - N/A   Clear
2:51 PM 82.9 °F 82.6 °F 57.9 °F 42% 30.06 in 10.0 mi Calm Calm - N/A   Clear
3:51 PM 82.9 °F 82.1 °F 55.9 °F 39% 30.04 in 10.0 mi Calm Calm - N/A   Clear
4:51 PM 84.9 °F 84.2 °F 57.9 °F 40% 30.03 in 10.0 mi NW 5.8 mph - N/A   Clear
5:51 PM 84.0 °F 84.0 °F 60.1 °F 44% 30.01 in 10.0 mi West 4.6 mph - N/A   Clear
6:51 PM 82.0 °F 83.0 °F 62.1 °F 51% 30.00 in 10.0 mi Calm Calm - N/A   Clear
7:51 PM 71.1 °F - 63.0 °F 75% 30.00 in 10.0 mi ESE 3.5 mph - N/A   Clear
8:51 PM 66.9 °F - 62.1 °F 84% 30.02 in 10.0 mi Calm Calm - N/A   Clear
9:51 PM 64.9 °F - 61.0 °F 87% 30.05 in 10.0 mi Calm Calm - N/A   Clear
10:51 PM 64.0 °F - 60.1 °F 87% 30.04 in 10.0 mi SE 3.5 mph - N/A   Clear
11:51 PM 62.1 °F - 59.0 °F 90% 30.03 in 8.0 mi Calm Calm - N/A   Clear